Abilene Dyess, TX

10:32 PM CDT on September 21, 2017 (GMT -0500)
Dyess Air Force Base

Weather History for KDYS - January, 2013

Change the Weather History Date:

Wednesday, January 9, 2013

  Actual Average Record
Temperature  
Mean Temperature 44 °F -  
Max Temperature 46 °F 56 °F 82 °F (2009)
Min Temperature 42 °F 33 °F 21 °F (1999)
Degree Days  
Heating Degree Days 21    
Moisture  
Dew Point 45 °F    
Average Humidity 99    
Maximum Humidity 100    
Minimum Humidity 93    
Precipitation  
Precipitation 0.81 in - - ()
Sea Level Pressure  
Sea Level Pressure 30.04 in    
Wind  
Wind Speed 12 mph (North)    
Max Wind Speed 23 mph    
Max Gust Speed 28 mph    
Visibility 5 miles    
Events Rain    
Averages and records for this station are not official NWS values.
T = Trace of Precipitation, MM = Missing Value Source: NWS Daily Summary

Daily Weather History Graph

Daily Weather History Graph

Search for Another Location

Airport or City:

Trip Planner

Search our weather history database for the weather conditions in past years. The results will help you decide how hot, cold, wet, or windy it might be!

Date:

Astronomy

Jan. 09, 2013 Rise Set
Actual Time 7:41 AM CST 5:51 PM CST
Civil Twilight 7:14 AM CST 6:18 PM CST
Nautical Twilight 6:44 AM CST 6:49 PM CST
Astronomical Twilight 6:14 AM CST 7:18 PM CST
Moon 5:22 AM CST (1/9) 3:55 PM CST (1/9)
Length of Visible Light 11h 03m
Length of Day
10h 10m
Waning Crescent, 6% of the Moon is Illuminated
Jan 9
Waning Crescent
Jan 11
New
Jan 18
First Quarter
Jan 26
Full
Feb 3
Last Quarter

Hourly Weather History & Observations

Time (CST) Temp. Windchill Dew Point Humidity Pressure Visibility Wind Dir Wind Speed Gust Speed Precip Events Conditions
12:17 AM 46.4 °F 41.9 °F 46.4 °F 100% 30.07 in 3.0 mi NE 9.2 mph - N/A   Overcast
12:55 AM 46.8 °F - 46.8 °F 100% 30.07 in 2.0 mi NE 11.5 mph - 0.01 in Rain Light Rain
1:10 AM 46.4 °F 42.4 °F 46.4 °F 100% 30.07 in 4.0 mi NE 8.1 mph - N/A Rain Light Rain
1:37 AM 46.4 °F 40.7 °F 46.4 °F 100% 30.04 in 10.0 mi NE 12.7 mph - N/A   Overcast
1:51 AM 46.4 °F 40.7 °F 46.4 °F 100% 30.04 in 10.0 mi NNE 12.7 mph - N/A   Overcast
1:55 AM 46.6 °F - 46.6 °F 100% 30.04 in 10.0 mi NNE 10.4 mph - 0.01 in   Overcast
2:23 AM 46.4 °F 42.9 °F 46.4 °F 100% 30.07 in 9.0 mi NNW 6.9 mph - N/A   Overcast
2:55 AM 46.9 °F - 46.9 °F 100% 30.08 in 10.0 mi North 8.1 mph - N/A   Overcast
3:55 AM 46.8 °F - 46.8 °F 100% 30.09 in 7.0 mi North 10.4 mph - 0.00 in   Overcast
4:17 AM 46.4 °F 40.4 °F 46.4 °F 100% 30.10 in 9.0 mi North 13.8 mph - N/A Rain Light Rain
4:40 AM 46.4 °F 40.1 °F 46.4 °F 100% 30.10 in 6.0 mi North 15.0 mph - N/A Rain Light Rain
4:55 AM 46.6 °F - 46.6 °F 100% 30.09 in 5.0 mi North 16.1 mph - 0.00 in Rain Light Rain
5:02 AM 46.4 °F 40.1 °F 46.4 °F 100% 30.09 in 3.0 mi North 15.0 mph - N/A Rain Light Rain
5:55 AM 45.1 °F 38.4 °F 45.0 °F 99% 30.10 in 4.0 mi North 15.0 mph - 0.01 in Rain Light Rain
6:11 AM 44.6 °F 37.4 °F 44.6 °F 100% 30.10 in 6.0 mi NNE 16.1 mph - N/A Rain Light Rain
6:55 AM 45.1 °F 38.4 °F 44.6 °F 98% 30.11 in 4.0 mi NNE 15.0 mph 21.9 mph 0.01 in Rain Light Rain
7:26 AM 44.6 °F 37.8 °F 44.6 °F 100% 30.13 in 8.0 mi NNE 15.0 mph 20.7 mph N/A   Overcast
7:35 AM 44.6 °F 38.4 °F 44.6 °F 100% 30.13 in 8.0 mi North 12.7 mph - N/A Rain Light Rain
7:41 AM 44.6 °F 38.1 °F 44.6 °F 100% 30.13 in 6.0 mi NNE 13.8 mph - N/A Rain Light Rain
7:55 AM 45.1 °F 38.1 °F 44.8 °F 99% 30.14 in 1.2 mi NNE 16.1 mph - 0.01 in Rain Light Rain
8:24 AM 44.6 °F 37.8 °F 44.6 °F 100% 30.14 in 1.5 mi NNE 15.0 mph - N/A Rain Light Rain
8:55 AM 45.3 °F 38.7 °F 45.0 °F 99% 30.15 in 2.0 mi North 15.0 mph - 0.02 in Rain Light Rain
9:05 AM 44.6 °F 37.4 °F 44.6 °F 100% 30.14 in 7.0 mi North 16.1 mph - N/A Rain Light Rain
9:55 AM 45.3 °F 38.7 °F 45.3 °F 100% 30.16 in 1.5 mi North 15.0 mph 24.2 mph 0.02 in Rain Light Rain
10:18 AM 44.6 °F 36.6 °F 44.6 °F 100% 30.14 in 5.0 mi North 19.6 mph 27.6 mph N/A Rain Light Rain
10:34 AM 44.6 °F 36.9 °F 44.6 °F 100% 30.15 in 6.0 mi North 18.4 mph - N/A Rain Light Rain
10:55 AM 43.9 °F 35.7 °F 43.3 °F 98% 30.14 in 6.0 mi North 19.6 mph - 0.04 in Rain Light Rain
11:45 AM 42.8 °F 35.1 °F 42.8 °F 100% 30.11 in 2.0 mi NNE 16.1 mph 25.3 mph N/A Rain Light Rain
11:51 AM 42.8 °F 35.1 °F 42.8 °F 100% 30.11 in 1.2 mi NNE 16.1 mph 21.9 mph N/A Rain Rain
11:55 AM 43.5 °F 36.1 °F 43.0 °F 98% 30.12 in 1.5 mi NNE 16.1 mph 21.9 mph 0.06 in Rain Rain
12:11 PM 44.6 °F 37.8 °F 42.8 °F 93% 30.09 in 2.0 mi North 15.0 mph 23.0 mph N/A Rain Rain
12:55 PM 43.9 °F 35.0 °F 43.3 °F 98% 30.06 in 5.0 mi North 23.0 mph 26.5 mph 0.08 in Rain Light Rain
1:28 PM 44.6 °F 36.1 °F 42.8 °F 93% 30.02 in 2.0 mi North 21.9 mph 27.6 mph N/A Rain Light Rain
1:55 PM 43.9 °F 35.4 °F 43.2 °F 97% 29.99 in 5.0 mi North 20.7 mph 26.5 mph 0.03 in Rain Light Rain
2:31 PM 44.6 °F 38.1 °F 42.8 °F 93% 30.00 in 1.0 mi North 13.8 mph 24.2 mph N/A Rain Rain
2:38 PM 44.6 °F 37.8 °F 42.8 °F 93% 30.01 in 0.8 mi North 15.0 mph - N/A Rain Heavy Rain
2:44 PM 44.6 °F 38.4 °F 42.8 °F 93% 30.02 in - North 12.7 mph 23.0 mph N/A Rain Heavy Rain
2:51 PM 44.6 °F 38.1 °F 42.8 °F 93% 30.02 in 3.0 mi NNE 13.8 mph 20.7 mph N/A Rain Heavy Rain
2:55 PM 43.7 °F 37.3 °F 43.2 °F 98% 30.02 in 4.0 mi North 12.7 mph 20.7 mph 0.19 in Rain Heavy Rain
3:01 PM 44.6 °F 39.2 °F 42.8 °F 93% 30.02 in 5.0 mi NNE 10.4 mph - N/A Rain Rain
3:14 PM 44.6 °F 38.8 °F 42.8 °F 93% 30.02 in 6.0 mi NNE 11.5 mph - N/A Rain Rain
3:51 PM 44.6 °F 36.9 °F 44.6 °F 100% 29.96 in 9.0 mi North 18.4 mph 26.5 mph N/A Rain Light Rain
3:55 PM 44.2 °F 37.3 °F 43.7 °F 98% 29.95 in 9.0 mi NNE 15.0 mph 26.5 mph 0.07 in Rain Light Rain
4:16 PM 44.6 °F 38.4 °F 44.6 °F 100% 29.98 in 10.0 mi NNE 12.7 mph 18.4 mph N/A   Overcast
4:21 PM 44.6 °F 39.2 °F 44.6 °F 100% 29.98 in 8.0 mi NNE 10.4 mph - N/A Rain Light Rain
4:55 PM 45.1 °F 39.1 °F 44.4 °F 97% 29.96 in 5.0 mi North 12.7 mph - 0.01 in Rain Light Rain
5:55 PM 46.6 °F - 46.2 °F 99% 29.94 in 5.0 mi NNE 9.2 mph - 0.12 in Rain Light Rain
6:14 PM 46.4 °F 43.5 °F 46.4 °F 100% 29.94 in 7.0 mi NNE 5.8 mph - N/A Rain Rain
6:39 PM 46.4 °F 42.9 °F 46.4 °F 100% 29.97 in 4.0 mi West 6.9 mph - N/A Rain Light Rain
6:55 PM 46.8 °F - 46.8 °F 100% 29.97 in 3.0 mi West 5.8 mph - 0.07 in Rain Light Rain
7:47 PM 46.4 °F 41.9 °F 46.4 °F 100% 29.98 in 7.0 mi WNW 9.2 mph - N/A   Overcast
7:49 PM 46.4 °F 41.9 °F 46.4 °F 100% 29.98 in 5.0 mi WNW 9.2 mph - N/A Rain Light Rain
7:55 PM 46.4 °F 41.5 °F 46.4 °F 100% 29.98 in 4.0 mi WNW 10.4 mph - 0.03 in Rain Light Rain
8:28 PM 46.4 °F 42.4 °F 46.4 °F 100% 29.99 in 6.0 mi West 8.1 mph - N/A   Light Drizzle
8:51 PM 46.4 °F 42.4 °F 46.4 °F 100% 29.99 in 6.0 mi WNW 8.1 mph - N/A   Overcast
8:53 PM 46.4 °F 42.4 °F 46.4 °F 100% 29.99 in 6.0 mi WNW 8.1 mph - N/A   Light Drizzle
8:55 PM 45.5 °F 41.3 °F 45.5 °F 100% 29.99 in 6.0 mi WNW 8.1 mph - 0.01 in   Light Drizzle
9:10 PM 46.4 °F 42.4 °F 46.4 °F 100% 29.99 in 5.0 mi WNW 8.1 mph - N/A   Overcast
9:12 PM 46.4 °F 42.4 °F 46.4 °F 100% 29.99 in 6.0 mi WNW 8.1 mph - N/A Rain Light Rain
9:18 PM 44.6 °F 40.7 °F 44.6 °F 100% 29.99 in 8.0 mi WNW 6.9 mph - N/A   Light Drizzle
9:23 PM 44.6 °F 40.2 °F 44.6 °F 100% 29.98 in 8.0 mi NW 8.1 mph - N/A   Overcast
9:55 PM 45.3 °F 41.1 °F 45.3 °F 100% 29.98 in 8.0 mi WNW 8.1 mph - 0.00 in   Overcast
10:55 PM 45.5 °F 41.3 °F 45.5 °F 100% 29.97 in 8.0 mi WNW 8.1 mph - N/A   Overcast
11:13 PM 46.4 °F 43.5 °F 46.4 °F 100% 29.97 in 10.0 mi NW 5.8 mph - N/A Rain Light Rain
11:23 PM 46.4 °F 42.9 °F 46.4 °F 100% 29.96 in 7.0 mi NW 6.9 mph - N/A   Overcast
11:41 PM 46.4 °F 42.4 °F 46.4 °F 100% 29.97 in 4.0 mi West 8.1 mph - N/A   Overcast
11:55 PM 45.5 °F 42.5 °F 45.5 °F 100% 29.98 in 4.0 mi West 5.8 mph - 0.01 in Rain Light Rain
11:57 PM 46.4 °F 44.3 °F 46.4 °F 100% 29.98 in 4.0 mi WSW 4.6 mph - N/A Rain Light Rain